Location: Big Prairie
(40.6673°N, 82.0952°W)
Time: 15:07:33
(UTC+00:00)

Meteor 1-26 Rocket - Pass Details

Date: 02 July 2022
Orbit: 811 x 924 km, 81.3° (Epoch: 18 August)

Event Time Altitude Azimuth Distance (km) Brightness Sun altitude
Rises 05:58:43 0° 359° (N) 3,477 8.7 -26.0°
Reaches altitude 10° 06:01:23 10° 8° (N) 2,552 7.7 -25.9°
Maximum altitude 06:06:40 35° 73° (ENE) 1,420 5.5 -25.8°
Enters shadow 06:09:07 25° 116° (ESE) 1,735 5.6 -25.7°
